EW5195 Weather Reports


Display with metric or nautical units.
time (UTC)temp
F
wind
direction
speed
MPH
gust
MPH
rain 1hr
in
rain 24hr
in
rain mn
in
humidity
%
barometer
mb
20260905161051 83 0 0.0 0.0 0.00 0.31 0.00 75 1013.1
20260905160550 83 0 0.0 0.0 0.00 0.31 0.00 76 1013.0
20260905160104 83 0 0.0 0.0 0.00 0.31 0.00 77 1012.9
20260905155550 83 0 0.0 0.0 0.00 0.31 0.00 76 1012.9
20260905155050 83 0 0.0 0.0 0.00 0.31 0.00 75 1012.9
20260905154610 83 0 0.0 0.0 0.00 0.31 0.00 75 1013.0
20260905154051 83 0 0.0 0.0 0.00 0.31 0.00 75 1013.1
20260905153550 83 0 0.0 0.0 0.00 0.31 0.00 76 1013.2
20260905153102 84 0 0.0 0.0 0.00 0.31 0.00 75 1013.1
20260905152552 83 0 0.0 0.0 0.00 0.31 0.00 76 1013.1
20260905152050 83 0 0.0 0.0 0.00 0.31 0.00 78 1013.2
20260905151604 83 0 0.0 0.0 0.00 0.31 0.00 78 1013.2
20260905151050 83 0 0.0 0.0 0.00 0.31 0.00 79 1013.3
20260905150554 82 0 0.0 0.0 0.00 0.31 0.00 78 1013.2
20260905150115 82 0 0.0 0.0 0.00 0.31 0.00 79 1013.2
20260905145551 82 0 0.0 0.0 0.00 0.31 0.00 79 1013.2
20260905145051 82 0 0.0 0.0 0.00 0.31 0.00 81 1013.3
20260905144605 82 0 0.0 0.0 0.00 0.31 0.00 81 1013.3
20260905144050 81 0 0.0 0.0 0.00 0.31 0.00 79 1013.4
20260905143549 81 0 0.0 0.0 0.00 0.31 0.00 80 1013.2
20260905143104 81 0 0.0 0.0 0.00 0.31 0.00 80 1013.4
20260905142550 81 0 0.0 0.0 0.00 0.31 0.00 81 1013.1
20260905142050 81 0 0.0 0.0 0.00 0.31 0.00 82 1013.0
20260905141607 81 0 0.0 0.0 0.00 0.31 0.00 82 1012.9
20260905141052 80 0 0.0 0.0 0.00 0.31 0.00 82 1013.0
20260905140552 80 0 0.0 0.0 0.00 0.31 0.00 83 1012.9
20260905140109 80 0 0.0 0.0 0.00 0.31 0.00 83 1013.0
20260905135554 80 0 0.0 0.0 0.00 0.31 0.00 84 1013.0
20260905135049 79 0 0.0 0.0 0.00 0.31 0.00 84 1012.9
20260905134605 79 0 0.0 0.0 0.00 0.31 0.00 88 1012.9
20260905134049 78 0 0.0 0.0 0.00 0.31 0.00 88 1012.5
20260905133551 78 0 0.0 0.0 0.00 0.31 0.00 89 1012.7
20260905133102 77 0 0.0 0.0 0.00 0.31 0.00 89 1012.8
20260905132548 76 0 0.0 0.0 0.00 0.31 0.00 90 1012.9
20260905132050 75 0 0.0 0.0 0.00 0.31 0.00 93 1012.8
20260905131602 75 0 0.0 0.0 0.00 0.31 0.00 93 1012.8
20260905131051 74 0 0.0 0.0 0.00 0.31 0.00 93 1012.6
20260905130551 74 0 0.0 0.0 0.00 0.31 0.00 94 1012.7
20260905130108 74 0 0.0 0.0 0.00 0.31 0.00 94 1012.7
20260905125549 73 0 0.0 0.0 0.00 0.31 0.00 94 1012.7
20260905125049 73 0 0.0 0.0 0.00 0.31 0.00 94 1012.8
20260905124604 73 0 0.0 0.0 0.00 0.31 0.00 95 1012.8
20260905124049 73 0 0.0 0.0 0.00 0.31 0.00 95 1013.0
20260905123548 72 0 0.0 0.0 0.00 0.31 0.00 95 1012.9
20260905123105 72 0 0.0 0.0 0.00 0.31 0.00 95 1012.9
20260905122550 72 0 0.0 0.0 0.00 0.31 0.00 95 1012.8
20260905122051 72 0 0.0 0.0 0.00 0.31 0.00 95 1012.9
20260905121605 72 0 0.0 0.0 0.00 0.31 0.00 95 1013.0
20260905121051 71 0 0.0 0.0 0.00 0.31 0.00 95 1012.8
20260905120551 71 0 0.0 0.0 0.00 0.31 0.00 95 1012.8
20260905120106 71 0 0.0 0.0 0.00 0.31 0.00 95 1012.9
20260905115553 70 0 0.0 0.0 0.00 0.31 0.00 95 1012.7
20260905115053 70 0 0.0 0.0 0.00 0.31 0.00 95 1012.7
20260905114601 70 0 0.0 0.0 0.00 0.31 0.00 95 1012.7
20260905114050 70 0 0.0 0.0 0.00 0.31 0.00 95 1012.7
20260905113551 70 0 0.0 0.0 0.00 0.31 0.00 95 1012.7
20260905113127 70 0 0.0 0.0 0.00 0.31 0.00 95 1012.8
20260905112551 69 0 0.0 0.0 0.00 0.31 0.00 95 1012.7
20260905112050 69 0 0.0 0.0 0.00 0.31 0.00 95 1012.8
20260905111604 69 0 0.0 0.0 0.00 0.31 0.00 95 1012.7
20260905111051 69 0 0.0 0.0 0.00 0.31 0.00 95 1012.6
20260905110551 69 0 0.0 0.0 0.00 0.31 0.00 95 1012.6
20260905110109 69 0 0.0 0.0 0.00 0.31 0.00 95 1012.7
20260905105551 69 0 0.0 0.0 0.00 0.31 0.00 94 1012.5
20260905105054 69 0 0.0 0.0 0.00 0.31 0.00 95 1012.5
20260905104610 69 0 0.0 0.0 0.00 0.31 0.00 94 1012.5
20260905104050 69 0 0.0 0.0 0.00 0.31 0.00 94 1012.4
20260905103551 69 0 0.0 0.0 0.00 0.31 0.00 94 1012.2
20260905103104 69 0 0.0 0.0 0.00 0.31 0.00 94 1012.2
20260905102550 69 0 0.0 0.0 0.00 0.31 0.00 94 1012.2
20260905102050 69 0 0.0 0.0 0.00 0.31 0.00 95 1012.2
20260905101607 69 0 0.0 0.0 0.00 0.31 0.00 95 1012.1
20260905101051 69 0 0.0 0.0 0.00 0.31 0.00 95 1012.3
20260905100550 69 0 0.0 0.0 0.00 0.31 0.00 95 1012.1
20260905100109 69 0 0.0 0.0 0.00 0.31 0.00 95 1012.1
20260905095551 69 0 0.0 0.0 0.00 0.31 0.00 95 1012.1
20260905095051 69 0 0.0 0.0 0.00 0.31 0.00 94 1012.0
20260905094602 69 0 0.0 0.0 0.00 0.31 0.00 94 1012.1
20260905094051 69 0 0.0 0.0 0.00 0.31 0.00 94 1012.0
20260905093551 69 0 0.0 0.0 0.00 0.31 0.00 94 1011.9
20260905093109 70 0 0.0 0.0 0.00 0.31 0.00 94 1011.9
20260905092551 70 0 0.0 0.0 0.00 0.31 0.00 94 1011.9
20260905092050 70 0 0.0 0.0 0.00 0.31 0.00 94 1012.0
20260905091605 70 0 0.0 0.0 0.00 0.31 0.00 94 1012.0
20260905091051 70 0 0.0 0.0 0.00 0.31 0.00 94 1012.0
20260905090551 70 0 0.0 0.0 0.00 0.31 0.00 95 1012.0
20260905090103 70 0 0.0 0.0 0.00 0.31 0.00 94 1012.0
20260905085551 70 0 0.0 0.0 0.00 0.31 0.00 95 1012.0
20260905085050 70 0 0.0 0.0 0.00 0.31 0.00 95 1012.1
20260905084606 70 0 0.0 0.0 0.00 0.31 0.00 94 1012.1
20260905084054 70 0 0.0 0.0 0.00 0.31 0.00 94 1012.1
20260905083551 70 0 0.0 0.0 0.00 0.31 0.00 94 1012.1
20260905083104 70 0 0.0 0.0 0.00 0.31 0.00 94 1012.2
20260905082551 70 0 0.0 0.0 0.00 0.31 0.00 94 1012.2
20260905082050 70 0 0.0 0.0 0.00 0.31 0.00 94 1012.2
20260905081605 70 0 0.0 0.0 0.00 0.31 0.00 94 1012.3
20260905081051 70 0 0.0 0.0 0.00 0.31 0.00 94 1012.2
20260905080551 70 0 0.0 0.0 0.00 0.31 0.00 94 1012.3
20260905080124 70 0 0.0 0.0 0.00 0.31 0.00 94 1012.4
20260905075550 70 0 0.0 0.0 0.00 0.31 0.00 94 1012.3
20260905075053 70 0 0.0 0.0 0.00 0.31 0.00 94 1012.2
20260905074611 70 0 0.0 0.0 0.00 0.31 0.00 94 1012.3
20260905074050 70 0 0.0 0.0 0.00 0.31 0.00 94 1012.3
20260905073550 70 0 0.0 0.0 0.00 0.31 0.00 94 1012.3
20260905073118 70 0 0.0 0.0 0.00 0.31 0.00 94 1012.4
20260905072549 70 0 0.0 0.0 0.00 0.31 0.00 94 1012.4
20260905072050 70 0 0.0 0.0 0.00 0.31 0.00 94 1012.4
20260905071623 70 0 0.0 0.0 0.00 0.31 0.00 94 1012.4
20260905071054 70 0 0.0 0.0 0.00 0.31 0.00 94 1012.4
20260905070550 70 0 0.0 0.0 0.00 0.31 0.00 94 1012.5
20260905070123 70 0 0.0 0.0 0.00 0.31 0.00 94 1012.5
20260905065550 70 0 0.0 0.0 0.00 0.31 0.00 94 1012.4
20260905065050 70 0 0.0 0.0 0.00 0.31 0.00 94 1012.5
20260905064605 70 0 0.0 0.0 0.00 0.31 0.00 94 1012.7
20260905064049 70 0 0.0 0.0 0.00 0.31 0.00 94 1012.7
20260905063551 70 0 0.0 0.0 0.00 0.31 0.00 94 1012.7
20260905063112 70 0 0.0 0.0 0.00 0.31 0.00 94 1012.8
20260905062549 70 0 0.0 0.0 0.00 0.31 0.00 94 1013.0
20260905062051 70 0 0.0 0.0 0.00 0.31 0.00 94 1013.0
20260905061615 70 0 0.0 0.0 0.00 0.31 0.00 94 1013.1
20260905061050 70 0 0.0 0.0 0.00 0.31 0.00 94 1013.1
20260905060550 70 0 0.0 0.0 0.00 0.31 0.00 94 1013.0
20260905060104 70 0 0.0 0.0 0.00 0.31 0.00 94 1013.1
20260905055551 70 0 0.0 0.0 0.00 0.31 0.00 94 1013.1
20260905055051 70 0 0.0 0.0 0.00 0.31 0.00 94 1013.2
20260905054606 70 0 0.0 0.0 0.00 0.31 0.00 94 1013.4
20260905054050 71 0 0.0 0.0 0.00 0.31 0.00 94 1013.6
20260905053550 71 0 0.0 0.0 0.00 0.31 0.00 94 1013.5
20260905053105 71 0 0.0 0.0 0.00 0.31 0.00 94 1013.6
20260905052550 71 0 0.0 0.0 0.00 0.31 0.00 94 1013.7
20260905052051 71 0 0.0 0.0 0.00 0.31 0.00 94 1013.7
20260905051605 71 0 0.0 0.0 0.00 0.31 0.00 94 1013.8
20260905051051 71 0 0.0 0.0 0.00 0.31 0.00 94 1013.8
20260905050551 71 0 0.0 0.0 0.00 0.31 0.00 94 1014.0
20260905050104 71 0 0.0 0.0 0.00 0.31 0.00 94 1014.0
20260905045550 71 0 0.0 0.0 0.00 0.31 0.00 94 1014.1
20260905045119 71 0 0.0 0.0 0.00 0.31 0.00 94 1014.0
20260905044603 71 0 0.0 0.0 0.00 0.31 0.00 94 1014.0
20260905044053 71 0 0.0 0.0 0.00 0.31 0.00 94 1014.0
20260905043556 71 0 0.0 0.0 0.00 0.31 0.00 94 1014.0
20260905043102 71 0 0.0 0.0 0.00 0.31 0.00 94 1014.0
20260905042553 71 0 0.0 0.0 0.00 0.31 0.00 94 1014.1
20260905042055 71 0 0.0 0.0 0.00 0.31 0.00 94 1014.2
20260905041618 71 0 0.0 0.0 0.00 0.31 0.00 94 1014.2
20260905041051 71 0 0.0 0.0 0.00 0.31 0.00 94 1014.3
20260905040550 72 0 0.0 0.0 0.00 0.31 0.00 94 1014.2
20260905040108 72 0 0.0 0.0 0.00 0.31 0.00 94 1014.4
20260905035549 72 0 0.0 0.0 0.00 0.31 0.31 94 1014.4
20260905035051 72 0 0.0 0.0 0.00 0.31 0.31 94 1014.5
20260905034605 72 0 0.0 0.0 0.00 0.31 0.31 94 1014.4
20260905034051 72 0 0.0 0.0 0.01 0.31 0.31 94 1014.5
20260905033549 72 0 0.0 0.0 0.01 0.31 0.31 94 1014.5
20260905033118 72 0 0.0 0.0 0.01 0.31 0.31 94 1014.3
20260905032550 72 0 0.0 0.0 0.01 0.31 0.31 94 1014.4
20260905032052 72 0 0.0 0.0 0.01 0.31 0.31 94 1014.3
20260905031615 72 0 0.0 0.0 0.01 0.31 0.31 94 1014.2
20260905031050 73 0 0.0 0.0 0.01 0.31 0.31 94 1014.2
20260905030550 73 0 0.0 0.0 0.01 0.31 0.31 94 1014.3
20260905030109 73 0 0.0 0.0 0.01 0.31 0.31 94 1014.2
20260905025550 73 0 0.0 0.0 0.01 0.31 0.31 94 1014.3
20260905025050 73 0 0.0 0.0 0.01 0.31 0.31 94 1014.3
20260905024612 73 0 0.0 0.0 0.01 0.31 0.31 94 1014.3
20260905024050 73 0 0.0 0.0 0.00 0.30 0.30 94 1014.4
20260905023554 73 0 0.0 0.0 0.00 0.30 0.30 94 1014.6
20260905023106 73 0 0.0 0.0 0.00 0.30 0.30 94 1014.5
20260905022552 73 0 0.0 0.0 0.00 0.30 0.30 94 1014.6
20260905022050 73 0 0.0 0.0 0.00 0.30 0.30 94 1014.7
20260905021605 73 0 0.0 0.0 0.00 0.30 0.30 94 1014.6
20260905021052 73 0 0.0 0.0 0.00 0.30 0.30 94 1014.4
20260905020551 73 0 0.0 0.0 0.00 0.30 0.30 94 1014.5
20260905020112 73 0 0.0 0.0 0.00 0.30 0.30 94 1014.7
20260905015550 73 0 0.0 0.0 0.00 0.30 0.30 94 1014.7
20260905015052 73 0 0.0 0.0 0.00 0.30 0.30 94 1014.7
20260905014605 73 0 0.0 0.0 0.00 0.30 0.30 94 1014.7
20260905014049 73 0 0.0 0.0 0.00 0.30 0.30 94 1014.7
20260905013550 73 0 0.0 0.0 0.00 0.30 0.30 94 1014.7
20260905013111 73 0 0.0 0.0 0.00 0.30 0.30 94 1014.5
20260905012550 73 0 0.0 0.0 0.00 0.30 0.30 94 1014.3
20260905012050 73 0 0.0 0.0 0.00 0.30 0.30 94 1014.1
20260905011631 73 0 0.0 0.0 0.00 0.30 0.30 94 1014.1
20260905011052 73 0 0.0 0.0 0.00 0.30 0.30 94 1013.8
20260905010550 73 0 0.0 0.0 0.00 0.30 0.30 94 1013.6
20260905010106 73 0 0.0 0.0 0.00 0.30 0.30 94 1013.8
20260905005551 73 0 0.0 0.0 0.00 0.30 0.30 94 1014.0
20260905005053 73 0 0.0 0.0 0.00 0.30 0.30 94 1014.1
20260905004607 73 0 0.0 0.0 0.00 0.30 0.30 94 1013.9
20260905004050 73 0 0.0 0.0 0.00 0.30 0.30 94 1013.7
20260905003553 73 0 0.0 0.0 0.00 0.30 0.30 94 1013.7
20260905003102 73 0 0.0 0.0 0.00 0.30 0.30 94 1013.6
20260905002550 73 0 0.0 0.0 0.00 0.30 0.30 94 1013.7
20260905002050 73 0 0.0 0.0 0.00 0.30 0.30 94 1013.4
20260905001605 73 0 0.0 0.0 0.00 0.30 0.30 94 1013.3
20260905001050 73 0 0.0 0.0 0.00 0.30 0.30 94 1013.1
20260905000550 73 0 0.0 0.0 0.00 0.30 0.30 94 1012.6
20260905000107 74 0 0.0 0.0 0.00 0.30 0.30 94 1012.5
20260904235552 74 0 0.0 0.0 0.00 0.30 0.30 94 1012.7
20260904235059 74 0 0.0 0.0 0.00 0.30 0.30 94 1013.3
20260904234608 74 0 0.0 0.0 0.00 0.30 0.30 94 1013.0
20260904234050 74 0 0.0 0.0 0.00 0.30 0.30 94 1013.1
20260904233551 74 0 0.0 0.0 0.01 0.30 0.30 94 1013.7
20260904233104 74 0 0.0 0.0 0.01 0.30 0.30 94 1014.2
20260904232550 74 0 0.0 0.0 0.13 0.30 0.30 94 1014.5
20260904232049 74 0 0.0 0.0 0.14 0.30 0.30 94 1014.3
20260904231606 74 0 0.0 0.0 0.14 0.30 0.30 93 1014.2
20260904231055 73 0 0.0 0.0 0.15 0.30 0.30 93 1014.3
20260904230552 73 0 0.0 0.0 0.23 0.30 0.30 93 1014.2
20260904230105 73 0 0.0 0.0 0.30 0.30 0.30 93 1014.3
20260904225552 73 0 0.0 0.0 0.30 0.30 0.30 93 1014.6
20260904225053 73 0 0.0 0.0 0.30 0.30 0.30 92 1014.6
20260904224605 73 0 0.0 0.0 0.30 0.30 0.30 92 1014.4
20260904224053 74 0 0.0 0.0 0.30 0.30 0.30 92 1014.6
20260904223602 74 0 0.0 0.0 0.29 0.29 0.29 91 1015.3
20260904223108 74 0 0.0 0.0 0.29 0.29 0.29 91 1015.7
20260904222551 74 0 0.0 0.0 0.17 0.17 0.17 90 1016.2
20260904222052 74 0 0.0 0.0 0.16 0.16 0.16 89 1015.4
20260904221608 75 0 0.0 0.0 0.16 0.16 0.16 89 1014.1
20260904221052 76 0 0.0 0.0 0.15 0.15 0.15 86 1013.7
20260904220551 79 0 0.0 0.0 0.07 0.07 0.07 83 1013.7
20260904220109 83 0 0.0 0.0 0.00 0.00 0.00 79 1014.3
20260904215550 85 0 0.0 0.0 0.00 0.00 0.00 76 1014.3
20260904215054 86 0 0.0 0.0 0.00 0.00 0.00 76 1014.0
20260904214605 87 0 0.0 0.0 0.00 0.00 0.00 83 1013.1
20260904214051 87 0 0.0 0.0 0.00 0.00 0.00 83 1012.8
20260904213550 87 0 0.0 0.0 0.00 0.00 0.00 83 1012.9
20260904213109 87 0 0.0 0.0 0.00 0.00 0.00 83 1012.8
20260904212551 88 0 0.0 0.0 0.00 0.00 0.00 82 1012.7
20260904212050 88 0 0.0 0.0 0.00 0.00 0.00 84 1012.8
20260904211608 88 0 0.0 0.0 0.00 0.00 0.00 82 1012.7
20260904211051 89 0 0.0 0.0 0.00 0.00 0.00 80 1012.7
20260904210551 89 0 0.0 0.0 0.00 0.00 0.00 79 1012.7
20260904210107 89 0 0.0 0.0 0.00 0.00 0.00 79 1012.7
20260904205551 89 0 0.0 0.0 0.00 0.00 0.00 79 1012.7
20260904205051 89 0 0.0 0.0 0.00 0.00 0.00 77 1012.7
20260904204604 89 0 0.0 0.0 0.00 0.00 0.00 78 1012.7
20260904204052 89 0 0.0 0.0 0.00 0.00 0.00 79 1012.5
20260904203551 89 0 0.0 0.0 0.00 0.00 0.00 79 1012.5
20260904203108 89 0 0.0 0.0 0.00 0.00 0.00 74 1012.4
20260904202550 89 0 0.0 0.0 0.00 0.00 0.00 76 1012.4
20260904202050 90 0 0.0 0.0 0.00 0.00 0.00 75 1012.5
20260904201603 90 0 0.0 0.0 0.00 0.00 0.00 74 1012.5
20260904201050 91 0 0.0 0.0 0.00 0.00 0.00 70 1012.6
20260904200550 91 0 0.0 0.0 0.00 0.00 0.00 70 1012.8
20260904200107 92 0 0.0 0.0 0.00 0.00 0.00 66 1013.0
20260904195549 93 0 0.0 0.0 0.00 0.00 0.00 64 1012.9
20260904195054 93 0 0.0 0.0 0.00 0.00 0.00 63 1013.1
20260904194631 94 0 0.0 0.0 0.00 0.00 0.00 60 1013.2
20260904194051 95 0 0.0 0.0 0.00 0.00 0.00 61 1013.1
20260904193551 96 0 0.0 0.0 0.00 0.00 0.00 66 1013.2
20260904193107 95 0 0.0 0.0 0.00 0.00 0.00 63 1013.3
20260904192553 95 0 0.0 0.0 0.00 0.00 0.00 61 1013.3
20260904192049 95 0 0.0 0.0 0.00 0.00 0.00 59 1013.4
20260904191605 95 0 0.0 0.0 0.00 0.00 0.00 61 1013.6
20260904191050 94 0 0.0 0.0 0.00 0.00 0.00 59 1013.5
20260904190549 95 0 0.0 0.0 0.00 0.00 0.00 57 1013.7
20260904185550 95 0 0.0 0.0 0.00 0.00 0.00 58 1013.9
20260904185054 95 0 0.0 0.0 0.00 0.00 0.00 62 1013.9
20260904184607 95 0 0.0 0.0 0.00 0.00 0.00 61 1014.0
20260904184052 95 0 0.0 0.0 0.00 0.00 0.00 62 1014.1
20260904183552 95 0 0.0 0.0 0.00 0.00 0.00 56 1014.1
20260904183117 95 0 0.0 0.0 0.00 0.00 0.00 62 1014.3
20260904182549 94 0 0.0 0.0 0.00 0.00 0.00 60 1014.4
20260904182050 94 0 0.0 0.0 0.00 0.00 0.00 60 1014.4
20260904181611 95 0 0.0 0.0 0.00 0.00 0.00 61 1014.3
20260904181050 95 0 0.0 0.0 0.00 0.00 0.00 61 1014.4
20260904180552 94 0 0.0 0.0 0.00 0.00 0.00 59 1014.5
20260904180108 94 0 0.0 0.0 0.00 0.00 0.00 61 1014.6
20260904175551 94 0 0.0 0.0 0.00 0.00 0.00 60 1014.7
20260904175051 93 0 0.0 0.0 0.00 0.00 0.00 64 1014.8
20260904174605 94 0 0.0 0.0 0.00 0.00 0.00 62 1014.8
20260904174051 94 0 0.0 0.0 0.00 0.00 0.00 57 1014.8
20260904173552 94 0 0.0 0.0 0.00 0.00 0.00 60 1014.8
20260904173109 93 0 0.0 0.0 0.00 0.00 0.00 60 1014.9
20260904172555 93 0 0.0 0.0 0.00 0.00 0.00 62 1014.9
20260904172051 94 0 0.0 0.0 0.00 0.00 0.00 61 1014.9
20260904171622 93 0 0.0 0.0 0.00 0.00 0.00 61 1014.7
20260904171051 94 0 0.0 0.0 0.00 0.00 0.00 60 1014.7
20260904170550 94 0 0.0 0.0 0.00 0.00 0.00 60 1014.9
20260904170105 93 0 0.0 0.0 0.00 0.00 0.00 61 1014.7
20260904165552 94 0 0.0 0.0 0.00 0.00 0.00 66 1014.8
20260904165058 93 0 0.0 0.0 0.00 0.00 0.00 61 1015.1
20260904164608 93 0 0.0 0.0 0.00 0.00 0.00 62 1014.8
20260904164052 93 0 0.0 0.0 0.00 0.00 0.00 61 1014.9
20260904163552 93 0 0.0 0.0 0.00 0.00 0.00 62 1014.9
20260904163107 93 0 0.0 0.0 0.00 0.00 0.00 66 1015.0
20260904162554 93 0 0.0 0.0 0.00 0.00 0.00 62 1015.1
20260904162050 93 0 0.0 0.0 0.00 0.00 0.00 60 1015.2
20260904161605 93 0 0.0 0.0 0.00 0.00 0.00 64 1015.3